Weather History for Buffalo, WY

Change the Weather History Date:

Monday, December 9, 2013

  Actual Average Record
Temperature  
Mean Temperature 12 °F 26 °F  
Max Temperature 30 °F 36 °F 57 °F (2006)
Min Temperature -7 °F 15 °F -19 °F (2009)
Degree Days  
Heating Degree Days 53 39  
Month to date heating degree days 530 348  
Since 1 July heating degree days 2238 2182  
Cooling Degree Days 0 0  
Month to date cooling degree days 0 0  
Year to date cooling degree days 709 492  
Moisture  
Dew Point -2 °F    
Average Humidity 50    
Maximum Humidity 67    
Minimum Humidity 33    
Precipitation  
Precipitation 0.00 in 0.01 in 0.12 in (1985)
Month to date precipitation 0.18 0.16  
Year to date precipitation 10.31 13.21  
Sea Level Pressure  
Sea Level Pressure 30.10 in    
Wind  
Wind Speed 8 mph (SW)    
Max Wind Speed 25 mph    
Max Gust Speed 37 mph    
Visibility 10 miles    
Events      
T = Trace of Precipitation, MM = Missing Value Source: NWS Daily Summary

Daily Weather History Graph

Daily Weather History Graph

Search for Another Location

Airport:

Trip Planner

Search our weather history database for the weather conditions in past years. The results will help you decide how hot, cold, wet, or windy it might be!

Date:

Astronomy

Dec. 09, 2013 Rise Set
Actual Time 7:31 AM MST 4:27 PM MST
Civil Twilight 6:58 AM MST 5:00 PM MST
Nautical Twilight 6:21 AM MST 5:37 PM MST
Astronomical Twilight 5:46 AM MST 6:12 PM MST
Moon 12:12 PM MST (12/9) No Moon Set
Length of Visible Light 10h 02m
Length of Day
8h 56m
First Quarter, 52% of the Moon is Illuminated
Dec 9
First Quarter
Dec 17
Full
Dec 25
Last Quarter
Jan 1
New
Jan 7
First Quarter

Hourly Weather History & Observations

Time (MST) Temp. Windchill Dew Point Humidity Pressure Visibility Wind Dir Wind Speed Gust Speed Precip Events Conditions
12:53 AM -2.0 °F -13.9 °F -11.0 °F 66% 30.21 in 10.0 mi NNW 5.8 mph - N/A   Clear
1:53 AM -2.9 °F -18.8 °F -13.0 °F 62% 30.20 in 10.0 mi SW 9.2 mph - N/A   Clear
2:53 AM -2.9 °F -19.8 °F -11.9 °F 65% 30.20 in 10.0 mi SSW 10.4 mph - N/A   Clear
3:53 AM -2.9 °F -19.8 °F -13.0 °F 62% 30.18 in 10.0 mi WSW 10.4 mph - N/A   Clear
4:53 AM -0.9 °F -11.0 °F -11.9 °F 60% 30.14 in 10.0 mi SSW 4.6 mph - N/A   Clear
5:53 AM -2.0 °F -15.4 °F -11.9 °F 63% 30.13 in 10.0 mi SW 6.9 mph - N/A   Clear
6:53 AM -0.9 °F -17.4 °F -13.0 °F 57% 30.14 in 10.0 mi SW 10.4 mph - N/A   Clear
7:53 AM 3.0 °F -13.3 °F -14.1 °F 45% 30.08 in 10.0 mi South 11.5 mph - N/A   Clear
8:53 AM 8.1 °F -0.5 °F -13.0 °F 38% 30.08 in 10.0 mi Variable 4.6 mph - N/A   Clear
9:53 AM 12.9 °F -2.2 °F -9.0 °F 37% 30.06 in 10.0 mi South 13.8 mph - N/A   Clear
10:53 AM 16.0 °F 3.6 °F -9.0 °F 32% 30.04 in 10.0 mi South 10.4 mph - N/A   Clear
11:53 AM 18.0 °F 5.4 °F -5.1 °F 36% 30.00 in 10.0 mi South 11.5 mph - N/A   Clear
12:53 PM 19.9 °F 7.9 °F -2.0 °F 38% 30.01 in 10.0 mi South 11.5 mph - N/A   Overcast
1:53 PM 21.9 °F 15.7 °F 3.9 °F 46% 30.00 in 10.0 mi SSW 4.6 mph - N/A   Mostly Cloudy
2:53 PM 25.0 °F 12.6 °F 9.0 °F 51% 30.02 in 10.0 mi NNE 15.0 mph 35.7 mph N/A   Overcast
3:53 PM 23.0 °F 14.7 °F 10.9 °F 60% 30.06 in 10.0 mi North 6.9 mph - N/A   Overcast
4:53 PM 21.0 °F 13.4 °F 10.0 °F 63% 30.09 in 10.0 mi NNE 5.8 mph - N/A   Overcast
5:53 PM 21.9 °F - 10.9 °F 63% 30.11 in 10.0 mi Calm Calm - N/A   Overcast
6:53 PM 21.9 °F 15.7 °F 10.9 °F 63% 30.14 in 10.0 mi NNW 4.6 mph - N/A   Overcast
7:53 PM 21.9 °F 14.5 °F 9.0 °F 58% 30.14 in 10.0 mi North 5.8 mph - N/A   Overcast
8:53 PM 21.0 °F 14.6 °F 10.0 °F 63% 30.14 in 10.0 mi ENE 4.6 mph - N/A   Overcast
9:53 PM 18.0 °F 11.1 °F 8.1 °F 65% 30.12 in 10.0 mi NNW 4.6 mph - N/A   Overcast
10:53 PM 17.1 °F 10.0 °F 7.0 °F 65% 30.11 in 10.0 mi SW 4.6 mph - N/A   Scattered Clouds
11:53 PM 14.0 °F 1.2 °F 6.1 °F 71% 30.11 in 10.0 mi South 10.4 mph - N/A   Clear